Change the Weather History Date:

Monday, April 8, 2013

  Actual Average Record
Temperature  
Mean Temperature 66 °F -  
Max Temperature 78 °F 60 °F 138 °F (1997)
Min Temperature 53 °F 40 °F 30 °F (2007)
Growing Degree Days 16 (Base 50)    
Moisture  
Dew Point 46 °F    
Average Humidity 47    
Maximum Humidity 72    
Minimum Humidity 32    
Precipitation  
Precipitation 0.00 in - - ()
Sea Level Pressure  
Sea Level Pressure 30.00 in    
Wind  
Wind Speed 8 mph (SSW)    
Max Wind Speed 13 mph    
Max Gust Speed 21 mph    
Visibility 10 miles    
Events      
Averages and records for this station are not official NWS values.
T = Trace of Precipitation, MM = Missing Value Source: NWS Daily Summary

Daily Weather History Graph

Daily Weather History Graph

Search for Another Location

Airport or City:

Trip Planner

Search our weather history database for the weather conditions in past years. The results will help you decide how hot, cold, wet, or windy it might be!

Date:

Astronomy

Apr. 08, 2013 Rise Set
Actual Time 6:45 AM EDT 7:43 PM EDT
Civil Twilight 6:18 AM EDT 8:10 PM EDT
Nautical Twilight 5:46 AM EDT 8:43 PM EDT
Astronomical Twilight 5:12 AM EDT 9:16 PM EDT
Moon 5:34 AM EDT (4/8) 6:16 PM EDT (4/8)
Length of Visible Light 13h 52m
Length of Day
12h 57m
Waning Crescent, 3% of the Moon is Illuminated
Apr 8
Waning Crescent
Apr 10
New
Apr 18
First Quarter
Apr 25
Full
May 2
Last Quarter

Hourly Weather History & Observations

Time (EDT) Temp. Dew Point Humidity Pressure Visibility Wind Dir Wind Speed Gust Speed Precip Events Conditions
12:15 AM 62.6 °F 42.8 °F 48% 30.01 in 10.0 mi SW 9.2 mph - N/A   Scattered Clouds
12:35 AM 62.6 °F 44.6 °F 52% 30.01 in 10.0 mi SW 8.1 mph - N/A   Mostly Cloudy
1:15 AM 60.8 °F 44.6 °F 55% 30.01 in 10.0 mi SW 10.4 mph - N/A   Overcast
1:35 AM 60.8 °F 44.6 °F 55% 30.01 in 10.0 mi SW 8.1 mph - N/A   Scattered Clouds
1:55 AM 60.8 °F 44.6 °F 55% 30.02 in 10.0 mi SW 9.2 mph - N/A   Clear
2:15 AM 59.0 °F 44.6 °F 59% 30.02 in 10.0 mi SW 8.1 mph - N/A   Scattered Clouds
2:35 AM 59.0 °F 44.6 °F 59% 30.02 in 10.0 mi SW 6.9 mph - N/A   Mostly Cloudy
2:55 AM 59.0 °F 44.6 °F 59% 30.02 in 10.0 mi SW 5.8 mph - N/A   Overcast
3:15 AM 59.0 °F 44.6 °F 59% 30.02 in 10.0 mi SW 8.1 mph - N/A   Mostly Cloudy
3:35 AM 59.0 °F 44.6 °F 59% 30.02 in 10.0 mi SW 8.1 mph - N/A   Scattered Clouds
3:55 AM 57.2 °F 44.6 °F 63% 30.02 in 10.0 mi SW 8.1 mph - N/A   Scattered Clouds
4:15 AM 57.2 °F 44.6 °F 63% 30.02 in 10.0 mi SW 5.8 mph - N/A   Mostly Cloudy
4:35 AM 55.4 °F 44.6 °F 67% 30.02 in 10.0 mi SW 8.1 mph - N/A   Scattered Clouds
4:55 AM 55.4 °F 44.6 °F 67% 30.02 in 10.0 mi SW 6.9 mph - N/A   Scattered Clouds
5:15 AM 55.4 °F 44.6 °F 67% 30.02 in 10.0 mi SW 5.8 mph - N/A   Mostly Cloudy
5:35 AM 55.4 °F 44.6 °F 67% 30.02 in 10.0 mi SW 5.8 mph - N/A   Mostly Cloudy
5:55 AM 55.4 °F 44.6 °F 67% 30.03 in 10.0 mi SW 6.9 mph - N/A   Mostly Cloudy
6:15 AM 55.4 °F 44.6 °F 67% 30.03 in 10.0 mi SW 8.1 mph - N/A   Scattered Clouds
6:55 AM 55.4 °F 44.6 °F 67% 30.04 in 10.0 mi SW 5.8 mph - N/A   Scattered Clouds
7:15 AM 53.6 °F 44.6 °F 72% 30.05 in 10.0 mi SSW 4.6 mph - N/A   Clear
7:35 AM 55.4 °F 44.6 °F 67% 30.05 in 10.0 mi WSW 6.9 mph - N/A   Clear
7:55 AM 55.4 °F 44.6 °F 67% 30.06 in 10.0 mi WSW 8.1 mph - N/A   Scattered Clouds
8:15 AM 59.0 °F 44.6 °F 59% 30.07 in 10.0 mi SW 8.1 mph - N/A   Clear
8:35 AM 60.8 °F 44.6 °F 55% 30.07 in 10.0 mi SW 10.4 mph - N/A   Scattered Clouds
8:55 AM 62.6 °F 46.4 °F 55% 30.07 in 10.0 mi SW 11.5 mph - N/A   Scattered Clouds
9:15 AM 62.6 °F 46.4 °F 55% 30.07 in 10.0 mi SW 5.8 mph - N/A   Scattered Clouds
9:35 AM 62.6 °F 46.4 °F 55% 30.07 in 10.0 mi SW 10.4 mph - N/A   Scattered Clouds
9:55 AM 64.4 °F 46.4 °F 52% 30.07 in 10.0 mi SSW 10.4 mph - N/A   Scattered Clouds
10:15 AM 66.2 °F 46.4 °F 49% 30.07 in 10.0 mi SW 8.1 mph - N/A   Scattered Clouds
10:35 AM 68.0 °F 46.4 °F 46% 30.07 in 10.0 mi SSW 8.1 mph - N/A   Clear
10:55 AM 69.8 °F 46.4 °F 43% 30.07 in 10.0 mi SSW 9.2 mph - N/A   Scattered Clouds
11:15 AM 69.8 °F 46.4 °F 43% 30.06 in 10.0 mi SW 9.2 mph - N/A   Clear
11:35 AM 71.6 °F 46.4 °F 41% 30.06 in 10.0 mi WSW 4.6 mph - N/A   Clear
11:55 AM 73.4 °F 44.6 °F 36% 30.05 in 10.0 mi SW 5.8 mph - N/A   Clear
12:15 PM 73.4 °F 46.4 °F 38% 30.05 in 4.0 mi SW 8.1 mph - N/A   Haze
12:35 PM 73.4 °F 46.4 °F 38% 30.05 in 10.0 mi SE 3.5 mph - N/A   Clear
12:55 PM 73.4 °F 46.4 °F 38% 30.04 in 2.5 mi SE 6.9 mph - N/A   Haze
1:15 PM 75.2 °F 46.4 °F 36% 30.03 in 10.0 mi South 9.2 mph - N/A   Scattered Clouds
1:35 PM 77.0 °F 46.4 °F 34% 30.02 in 10.0 mi SSW 8.1 mph - N/A   Scattered Clouds
1:55 PM 77.0 °F 46.4 °F 34% 30.01 in 10.0 mi SSW 10.4 mph - N/A   Scattered Clouds
2:15 PM 78.8 °F 46.4 °F 32% 30.00 in 10.0 mi WSW 8.1 mph - N/A   Clear
2:35 PM 78.8 °F 46.4 °F 32% 30.00 in 10.0 mi SW 5.8 mph - N/A   Clear
2:55 PM 78.8 °F 46.4 °F 32% 29.99 in 10.0 mi South 9.2 mph - N/A   Clear
3:15 PM 78.8 °F 46.4 °F 32% 29.97 in 10.0 mi SSW 11.5 mph - N/A   Clear
3:35 PM 78.8 °F 46.4 °F 32% 29.96 in 10.0 mi SW 11.5 mph 19.6 mph N/A   Clear
3:55 PM 77.0 °F 44.6 °F 32% 29.96 in 10.0 mi SSW 10.4 mph 20.7 mph N/A   Mostly Cloudy
4:15 PM 77.0 °F 44.6 °F 32% 29.95 in 10.0 mi SSW 10.4 mph 17.3 mph N/A   Overcast
4:35 PM 77.0 °F 46.4 °F 34% 29.95 in 10.0 mi South 11.5 mph 17.3 mph N/A   Overcast
4:55 PM 78.8 °F 46.4 °F 32% 29.94 in 10.0 mi South 12.7 mph 18.4 mph N/A   Mostly Cloudy
5:15 PM 78.8 °F 46.4 °F 32% 29.94 in 10.0 mi SSW 10.4 mph 17.3 mph N/A   Scattered Clouds
5:35 PM 78.8 °F 46.4 °F 32% 29.93 in 10.0 mi SW 11.5 mph - N/A   Scattered Clouds
5:55 PM 78.8 °F 46.4 °F 32% 29.93 in 10.0 mi SSW 11.5 mph 18.4 mph N/A   Clear
6:15 PM 77.0 °F 46.4 °F 34% 29.93 in 10.0 mi South 8.1 mph - N/A   Clear
6:35 PM 75.2 °F 46.4 °F 36% 29.93 in 10.0 mi South 6.9 mph - N/A   Mostly Cloudy
6:55 PM 73.4 °F 46.4 °F 38% 29.93 in 10.0 mi South 9.2 mph - N/A   Mostly Cloudy
7:15 PM 73.4 °F 46.4 °F 38% 29.94 in 10.0 mi South 6.9 mph - N/A   Overcast
7:35 PM 71.6 °F 46.4 °F 41% 29.94 in 10.0 mi South 5.8 mph - N/A   Overcast
7:55 PM 71.6 °F 46.4 °F 41% 29.95 in 10.0 mi South 4.6 mph - N/A   Overcast
8:15 PM 71.6 °F 46.4 °F 41% 29.95 in 10.0 mi South 3.5 mph - N/A   Overcast
8:35 PM 71.6 °F 46.4 °F 41% 29.95 in 10.0 mi South 4.6 mph - N/A   Overcast
8:55 PM 69.8 °F 46.4 °F 43% 29.95 in 10.0 mi South 4.6 mph - N/A   Mostly Cloudy
9:15 PM 69.8 °F 46.4 °F 43% 29.96 in 10.0 mi South 4.6 mph - N/A   Mostly Cloudy
9:35 PM 69.8 °F 46.4 °F 43% 29.96 in 10.0 mi South 5.8 mph - N/A   Mostly Cloudy
9:55 PM 69.8 °F 46.4 °F 43% 29.97 in 10.0 mi SSW 5.8 mph - N/A   Overcast
10:15 PM 68.0 °F 46.4 °F 46% 29.97 in 10.0 mi SSW 3.5 mph - N/A   Mostly Cloudy
10:35 PM 68.0 °F 46.4 °F 46% 29.96 in 10.0 mi SW 3.5 mph - N/A   Scattered Clouds
10:55 PM 68.0 °F 46.4 °F 46% 29.97 in 10.0 mi WSW 3.5 mph - N/A   Clear
11:15 PM 68.0 °F 46.4 °F 46% 29.97 in 10.0 mi WSW 4.6 mph - N/A   Clear
11:35 PM 68.0 °F 46.4 °F 46% 29.97 in 10.0 mi WSW 4.6 mph - N/A   Clear
11:55 PM 68.0 °F 46.4 °F 46% 29.97 in 10.0 mi WSW 5.8 mph - N/A   Clear